Location: Asheville, NC
(35.6000°N, 82.5500°W)
Time: 03:11:08
(UTC-04:00)

XW-2D - Pass Details

Date: 10 February 2018
Orbit: 509 x 531 km, 97.5° (Epoch: 25 May)

Event Time Altitude Azimuth Distance (km) Brightness Sun altitude
Rises 05:29:10 0° 36° (NE) 2,619 ? -23.4°
Maximum altitude 05:33:59 12° 93° (E) 1,581 ? -22.5°
Drops below altitude 10° 05:35:36 10° 119° (ESE) 1,728 ? -22.1°
Sets 05:38:48 0° 150° (SSE) 2,612 ? -21.5°
